Wind_Gust
7 6 6 5 6 4 6 11 7 11 6 8 7 5 11 4 7 5 5 5 5 7 9 5 8 10 11 9 14 11 6 14 15 21 15 12 6 7 6 12 10 10 13 12 11 9 10 13 15 17 19 19 19 20 20 19 19 19 20 20 19 19 19 18 17 17 17 18 18 19 19 19 19 19 18 18 18 17 18 18 18 18 19 18 18 17 17 16 16 15 15 15 14 17 15 15 15
7 6 6 5 6 4 9 6 9 7 9 8 13 3 10 4 3 7 8 14 12 9 10 9 11 9 13 11 12 8 7 14 13 8 7 7 7 6 6 9 12 14 11 11 10 10 11 14 16 18 19 20 20 20 21 20 20 20 20 20 20 20 19 19 18 18 17 17 18 18 18 18 19 19 19 18 18 18 18 18 18 18 19 18 17 17 16 16 16 16 15 15 14 14 15 15 15
5 8 9 9 8 9 4 9 9 3 4 7 15 13 6 4 9 9 13 15 14 9 9 9 12 10 10 10 9 9 11 4 5 5 8 7 7 9 8 8 11 12 12 11 11 11 12 15 19 20 22 23 23 22 22 22 21 21 21 20 20 20 19 19 18 18 17 17 17 18 18 19 19 19 19 19 18 18 18 19 18 18 18 18 16 16 15 15 15 16 16 15 15 15 15 13 12
5 5 5 7 9 10 6 8 7 9 5 11 12 10 8 6 11 14 12 13 14 10 9 9 9 7 14 10 10 7 9 9 7 8 6 11 15 9 12 11 13 11 12 11 11 13 13 18 22 21 23 23 24 23 22 22 23 22 22 21 21 20 19 19 19 18 17 16 16 17 18 19 19 19 18 18 18 18 18 18 18 17 17 17 16 16 15 14 15 15 15 15 14 15 15 15 13
5 4 6 7 8 7 5 7 7 9 9 11 7 11 7 10 12 9 8 12 12 14 11 11 7 4 7 7 6 8 12 7 11 8 6 6 4 14 14 12 11 13 14 13 13 14 14 21 21 21 23 24 24 24 22 22 22 22 22 22 20 20 19 18 19 18 17 16 17 17 18 18 19 18 18 18 18 18 18 18 17 17 16 16 15 15 15 15 15 15 15 15 15 15 15 14 13
5 7 6 7 7 9 11 7 7 8 17 10 6 11 11 14 13 14 11 12 11 9 13 12 13 12 7 7 11 8 8 8 7 6 9 7 11 13 14 14 14 14 13 13 14 14 15 20 21 21 22 24 24 23 23 23 22 22 22 21 20 19 18 18 18 18 18 17 17 17 17 18 18 18 18 17 17 18 18 18 17 16 16 16 15 14 14 15 15 14 15 15 15 15 14 14 12
8 10 10 10 8 12 9 6 11 10 20 14 14 16 14 13 14 13 6 5 8 13 12 13 9 8 6 9 5 12 8 7 6 11 9 8 14 14 14 14 15 15 14 15 15 16 17 23 21 20 20 22 23 23 22 22 22 22 22 21 20 19 19 19 18 18 17 17 17 17 17 17 18 18 18 17 17 17 17 17 16 15 15 14 15 14 13 14 15 15 16 16 15 15 14 13 12
4 9 7 9 8 9 7 9 15 9 15 18 10 14 15 13 12 11 8 8 10 17 14 9 12 12 9 4 11 6 8 8 13 15 14 14 15 14 15 17 17 16 15 15 15 16 21 25 24 21 21 21 21 21 22 22 21 21 21 20 20 19 19 18 18 18 18 17 17 17 16 18 18 18 18 17 17 17 16 17 17 15 13 12 12 13 13 13 14 15 15 15 14 14 14 12 11
8 9 5 9 5 8 8 13 18 8 18 8 16 14 15 15 16 9 8 10 5 7 14 11 13 12 10 7 10 7 12 11 13 14 13 16 19 18 19 18 21 18 16 15 18 20 20 25 26 23 22 21 21 21 21 21 20 21 20 20 20 19 19 17 18 18 18 18 18 17 17 17 18 18 18 17 17 16 17 16 16 15 13 12 11 11 13 13 13 13 13 13 13 13 13 12 11
5 6 7 10 8 8 8 16 5 15 14 14 18 16 17 14 13 13 11 9 15 5 11 12 15 13 11 10 9 8 10 11 14 15 12 16 17 16 17 20 20 19 17 17 20 23 22 26 26 24 21 20 20 20 20 20 20 20 19 18 18 19 18 18 18 18 17 18 18 18 18 18 18 18 18 17 17 16 16 16 15 15 14 12 10 10 12 12 12 12 12 12 12 13 13 12 11
7 10 6 6 8 10 12 19 12 18 19 14 14 20 18 15 15 13 11 8 7 10 4 13 12 12 12 7 13 9 7 10 14 16 14 14 14 17 17 17 18 19 20 16 19 22 24 21 26 24 21 19 18 19 19 19 19 19 18 18 18 18 18 17 18 17 17 16 18 18 17 18 18 18 18 17 18 17 16 15 15 14 14 12 11 10 12 12 11 10 10 11 11 12 11 11 11
6 5 7 7 10 11 11 12 19 20 22 11 13 11 9 17 13 11 11 11 10 8 9 15 19 18 10 9 13 6 7 12 13 15 14 11 16 17 18 17 17 18 20 20 22 19 20 18 17 21 21 20 19 19 19 19 19 18 18 19 19 18 18 18 19 17 17 16 18 18 18 18 18 18 17 17 17 17 16 16 15 14 13 12 11 11 11 11 10 10 9 9 10 10 10 10 10
10 6 8 8 11 5 11 9 17 15 16 15 9 11 15 17 18 18 14 16 9 9 12 20 14 13 10 12 10 8 10 18 14 16 14 14 15 15 15 16 17 19 21 20 16 11 11 10 12 15 16 21 21 22 20 20 19 19 19 19 19 19 20 19 19 18 17 16 17 18 18 18 18 18 17 17 17 16 16 15 15 14 13 11 11 10 11 10 9 9 8 8 8 8 9 10 10
11 12 9 11 4 7 9 14 9 10 15 12 8 5 19 19 18 19 12 12 10 15 15 13 21 9 7 8 13 9 19 15 16 14 14 14 12 15 16 14 14 19 19 11 11 11 11 11 12 12 16 16 15 19 20 21 20 20 20 20 20 20 21 20 19 18 17 16 18 19 19 19 19 19 18 17 16 16 15 14 14 13 12 11 10 9 11 10 9 8 7 7 6 7 8 9 10
16 5 6 10 13 6 8 10 14 5 16 6 9 15 16 20 22 15 16 20 21 15 7 12 15 12 16 14 17 19 22 18 17 16 16 14 12 14 16 16 15 13 9 9 9 9 10 13 12 13 12 11 12 10 10 17 21 20 21 20 21 21 21 21 19 18 19 17 19 20 20 20 19 19 18 17 16 15 15 14 14 13 12 12 12 10 9 9 8 7 6 5 5 7 8 9 9
12 9 8 9 17 5 17 9 3 3 19 4 8 10 18 15 16 17 17 19 15 5 12 16 7 16 10 18 17 28 19 20 17 17 17 16 12 12 15 16 14 8 8 8 10 8 11 14 13 14 13 13 11 10 9 10 17 21 20 20 21 21 21 21 21 19 20 19 20 20 20 19 18 16 19 16 16 16 15 12 13 12 13 13 12 11 9 8 7 6 5 5 6 7 10 9 9
7 11 10 11 19 6 12 9 3 17 15 11 11 9 13 13 10 10 5 8 11 8 7 7 14 8 14 15 10 18 21 22 20 17 16 16 15 14 15 15 10 8 7 7 9 10 8 11 13 14 12 13 10 9 9 10 14 19 17 20 21 21 20 21 21 21 20 18 18 18 18 14 9 9 15 9 15 11 13 14 13 12 12 13 13 12 10 8 6 5 4 5 6 9 11 11 10
7 12 13 13 21 11 15 13 12 6 10 18 9 8 10 10 9 10 9 7 7 8 8 6 9 11 8 9 10 21 24 24 21 20 19 18 17 19 19 17 12 12 11 11 11 10 10 10 14 14 12 10 9 10 9 9 9 15 10 10 12 16 17 18 17 13 15 10 17 15 11 9 7 8 11 11 7 10 11 15 14 13 12 12 12 13 10 8 7 6 5 5 7 9 11 8 7
12 9 11 23 10 20 9 13 11 9 17 13 22 6 11 17 10 12 10 7 8 8 7 5 7 11 11 11 17 22 23 21 20 19 21 21 22 21 22 15 15 12 13 13 14 13 10 9 10 13 10 11 10 8 10 8 8 8 8 8 10 13 14 15 10 14 8 10 9 9 9 7 9 7 10 10 8 13 10 13 14 14 13 12 12 12 11 9 8 7 7 6 7 9 7 7 8
11 13 15 19 15 13 11 12 13 9 14 22 19 12 10 10 11 6 10 11 9 14 13 5 8 14 17 11 17 19 20 21 19 22 21 21 22 22 18 19 18 17 16 16 16 12 12 10 11 11 11 11 12 11 9 8 7 8 8 8 7 10 8 10 8 10 9 8 10 10 9 8 8 7 12 17 13 9 10 12 13 14 14 13 13 9 9 9 8 6 7 7 7 6 6 7 7
10 9 16 20 10 12 17 11 14 17 11 9 10 9 14 9 13 11 9 12 9 13 15 20 20 20 17 14 19 20 22 20 18 18 19 20 21 18 20 21 23 20 17 13 13 13 14 11 11 11 11 11 11 11 10 9 7 8 8 7 7 8 9 9 9 8 10 10 10 9 9 8 7 7 9 12 8 7 6 6 7 7 5 5 11 5 4 3 4 3 5 6 6 5 6 7 6
7 14 17 17 6 12 20 9 13 10 8 6 9 10 16 6 9 8 18 13 17 22 20 18 20 21 22 19 21 19 21 23 21 20 21 23 24 20 16 12 8 8 10 14 16 13 13 13 11 10 11 10 11 11 11 11 11 9 9 8 8 7 8 8 8 9 10 11 9 9 9 8 8 10 11 9 9 7 7 6 7 6 6 6 5 8 7 5 4 4 5 7 9 5 5 6 6
18 18 13 11 14 15 12 13 10 4 13 9 11 8 7 5 8 8 14 17 17 18 19 22 23 26 26 23 23 21 21 22 23 25 24 22 21 18 18 17 17 16 14 15 13 12 12 12 11 11 12 12 11 10 10 11 11 10 9 9 10 9 8 9 9 8 10 10 10 10 11 9 9 10 10 11 10 8 8 8 8 8 8 8 6 7 6 5 6 7 6 7 8 6 6 6 6
19 20 6 14 11 14 15 16 13 10 7 14 12 5 10 9 17 8 11 16 19 13 17 23 24 19 17 23 23 27 27 26 27 27 25 26 24 24 21 19 17 12 13 14 15 14 14 14 12 12 12 12 10 10 11 11 9 11 12 14 11 13 11 10 10 9 9 11 10 11 11 11 11 11 10 9 10 8 9 8 7 7 7 7 6 7 7 6 6 7 5 6 8 7 7 6 7
7 12 6 11 9 11 13 11 12 13 14 19 10 11 17 11 13 7 15 18 17 14 19 18 16 18 18 21 23 22 22 21 22 22 19 19 18 17 14 13 13 13 15 15 16 15 15 15 13 13 13 13 12 12 12 10 10 10 11 12 11 14 11 10 11 9 10 10 10 11 11 12 10 9 9 8 7 8 7 7 8 8 8 8 7 7 8 8 8 8 8 8 7 7 7 8 8
8 9 11 12 15 15 14 15 13 14 16 10 12 16 18 20 7 11 22 22 15 15 17 19 19 19 22 22 23 23 24 25 23 22 26 21 15 15 15 15 14 16 18 16 15 16 13 13 15 15 15 15 14 12 11 12 13 13 13 13 11 14 10 10 9 10 10 11 11 10 11 10 11 11 10 8 10 10 8 8 8 8 9 8 7 9 9 9 10 8 8 8 8 8 9 11 8
9 11 12 15 17 15 9 10 13 11 11 9 11 14 18 11 10 22 11 12 18 15 20 21 23 23 23 20 20 20 22 23 26 25 18 16 14 17 16 14 16 19 13 14 15 15 15 15 16 15 13 15 12 14 12 12 12 14 14 11 10 12 10 10 10 10 8 10 11 11 10 11 10 10 10 10 9 9 9 9 10 8 8 9 8 10 7 9 8 9 9 9 8 9 12 11 8
12 13 15 17 19 19 16 13 18 8 18 8 13 14 13 15 8 22 28 9 22 22 19 21 21 23 23 21 20 18 19 21 20 18 23 19 22 20 17 20 18 14 16 18 17 14 15 17 17 15 15 15 15 14 13 12 13 14 13 11 11 9 9 10 10 10 11 10 9 10 10 10 11 10 9 8 9 9 9 10 8 8 11 9 10 10 9 9 10 11 10 8 8 8 8 11 6
8 9 19 18 15 28 18 18 16 6 21 17 10 9 18 16 16 22 22 15 22 25 22 23 23 22 20 19 18 16 22 18 17 20 23 24 18 19 21 18 20 19 16 18 18 16 18 17 17 16 16 15 15 15 16 14 12 13 14 13 12 11 10 10 11 12 11 10 9 10 10 11 11 11 10 10 11 9 9 10 11 13 13 9 9 10 10 8 8 9 9 9 8 8 7 10 6
12 9 10 19 17 21 25 10 15 16 22 21 12 20 24 22 21 24 13 20 20 21 22 23 21 18 17 17 19 17 14 13 18 24 20 19 17 18 20 17 18 19 18 14 14 18 17 14 15 16 16 17 17 15 14 13 12 12 12 11 12 12 12 12 11 10 10 10 10 9 9 10 10 10 11 9 9 10 9 10 12 14 11 7 10 10 11 11 12 11 12 10 9 9 11 10 7
17 15 9 11 13 21 24 15 9 14 23 16 14 19 25 21 24 24 13 20 27 24 24 22 20 18 17 18 18 18 18 20 25 24 19 19 17 17 19 17 17 15 14 15 21 21 17 16 16 16 17 15 16 15 14 13 11 12 11 11 11 12 12 12 11 10 10 11 10 9 9 10 9 10 10 11 9 9 9 8 9 12 9 9 11 12 13 13 14 14 12 11 7 7 7 8 7
8 17 14 9 5 23 27 26 9 15 16 16 15 12 26 25 26 26 11 22 27 26 24 22 20 19 19 18 18 17 19 19 19 16 17 17 16 18 19 19 18 17 19 20 19 17 18 15 17 16 17 17 15 15 13 13 14 13 11 11 10 10 11 11 10 10 10 9 10 9 9 9 10 10 10 10 10 8 9 10 11 6 7 9 11 10 10 12 14 13 10 10 8 8 8 5 5
12 9 12 19 8 19 26 13 10 11 10 4 20 20 18 20 23 24 13 20 21 21 22 21 22 22 20 19 17 17 14 16 17 17 17 18 18 19 19 20 21 21 18 18 19 17 17 16 18 17 19 19 16 14 12 10 12 13 12 11 11 10 11 11 9 9 9 10 9 9 9 9 9 9 9 9 10 9 9 9 7 6 5 7 8 10 11 11 11 12 9 9 10 8 7 6 5
15 6 14 11 11 15 21 24 21 11 13 21 13 15 16 22 27 30 17 18 17 20 22 26 25 23 21 20 17 17 18 18 23 23 22 22 19 17 17 20 20 19 18 20 20 23 20 18 17 17 16 17 17 17 15 13 12 11 11 11 12 11 11 10 9 10 10 10 9 10 10 10 10 9 9 9 9 9 8 9 7 6 6 6 6 8 9 7 9 9 10 6 9 8 8 8 8
13 13 13 19 10 9 18 25 22 20 16 12 10 18 22 24 24 24 20 10 16 20 22 27 25 21 19 17 19 18 20 20 27 23 23 21 18 17 19 19 19 18 18 18 19 18 18 18 16 16 16 17 16 16 14 13 12 9 8 9 10 10 9 9 11 10 10 10 11 10 9 10 9 9 10 10 10 8 8 7 7 6 6 5 4 4 6 6 7 8 10 9 5 6 10 10 8
14 13 13 12 19 27 25 24 26 12 19 24 22 18 21 23 25 26 23 12 17 22 21 19 20 20 19 21 21 21 21 25 26 19 21 20 19 20 19 20 19 18 18 18 18 17 17 17 16 16 15 16 15 15 15 14 14 14 15 13 13 12 11 11 11 11 9 11 11 11 11 10 8 9 9 9 9 9 8 8 8 6 7 5 5 5 6 8 11 9 9 8 6 5 5 5 8
18 17 14 21 21 24 26 23 27 8 13 17 20 14 12 19 21 23 20 13 10 14 15 18 20 19 21 22 23 24 22 29 22 19 21 20 19 19 17 18 18 16 17 18 19 17 18 21 19 19 16 16 16 17 16 17 18 16 14 19 18 14 14 12 12 11 11 11 10 10 10 10 9 9 9 9 10 11 10 8 7 6 6 7 7 8 8 8 7 8 7 5 8 6 4 5 4
17 16 15 22 16 24 31 28 28 16 11 20 21 11 16 19 20 19 15 12 13 17 14 17 23 25 24 26 24 24 28 16 11 10 13 13 14 14 16 18 18 21 18 19 21 21 18 17 20 19 16 17 17 18 17 17 16 20 19 19 15 14 15 17 16 13 13 11 10 9 9 9 9 10 11 10 9 10 10 9 9 9 8 9 9 8 6 6 5 6 8 7 5 6 7 4 6
16 17 19 15 27 23 25 26 22 13 10 19 17 13 21 22 20 16 12 14 13 13 14 17 25 24 24 24 26 25 19 17 12 13 16 18 16 16 18 19 20 23 22 22 19 18 18 18 18 18 18 19 18 17 17 18 16 14 15 14 15 13 10 11 11 10 10 11 10 10 10 9 9 10 10 11 11 10 10 10 10 9 9 10 8 7 6 5 7 9 9 9 6 5 5 4 4
18 18 13 23 27 18 28 28 22 11 12 14 14 20 24 19 13 12 15 11 11 13 15 12 22 27 28 29 28 27 25 21 20 21 23 20 19 19 16 18 19 16 18 16 18 21 20 19 18 19 19 18 18 19 19 14 14 11 8 7 9 11 11 12 10 8 10 11 11 12 11 11 11 11 11 11 11 10 10 11 10 10 10 8 8 7 7 6 6 6 7 7 9 5 5 4 5
18 17 20 24 24 28 26 32 25 21 17 10 11 10 18 10 13 17 15 12 12 17 18 18 12 21 29 29 26 28 30 27 22 16 14 18 19 23 23 19 17 19 19 20 21 23 22 22 20 21 20 19 17 18 18 14 15 11 10 9 8 8 5 11 11 11 12 13 13 12 13 12 12 12 11 11 11 11 10 10 10 9 8 8 8 10 12 10 8 8 9 8 8 10 7 7 5
23 21 22 26 27 27 27 21 12 19 22 14 4 24 19 12 11 12 16 19 22 18 21 19 14 13 12 15 23 20 21 24 26 26 28 28 27 18 14 16 19 19 21 21 20 20 18 19 18 18 17 18 18 17 16 16 17 16 16 14 16 17 17 17 19 18 15 15 16 11 12 13 12 12 12 12 12 10 11 11 10 10 9 9 9 12 11 7 7 8 10 10 10 6 10 8 7
13 23 16 25 23 19 16 19 8 9 19 15 5 10 30 14 12 10 9 15 15 17 17 17 15 15 12 20 19 21 22 18 15 20 18 16 15 18 17 20 21 20 19 15 14 15 15 17 17 18 18 18 18 17 16 16 15 16 17 17 17 17 18 15 12 12 13 12 10 10 11 11 13 14 11 11 11 12 10 10 10 10 9 9 8 8 9 10 9 9 7 7 9 9 9 8 10
17 14 16 15 7 9 11 10 10 20 8 11 7 10 18 20 18 10 8 17 13 18 20 20 19 15 14 11 16 16 21 21 24 21 23 24 24 26 28 25 22 23 16 15 16 15 16 16 16 17 15 18 17 17 18 17 17 15 15 14 15 16 17 15 14 13 9 11 10 11 9 10 11 12 13 12 11 11 10 10 9 9 9 8 8 9 10 8 7 5 7 8 10 10 11 10 9
21 12 11 11 12 16 16 12 14 11 5 18 14 6 15 15 16 7 7 9 11 13 14 15 19 18 15 14 19 26 26 23 22 21 19 21 23 23 18 19 15 14 16 19 19 18 16 15 16 15 15 15 16 17 18 17 16 16 16 15 14 15 12 12 10 10 11 11 10 10 11 10 10 11 12 12 11 11 12 11 9 9 9 9 10 9 9 8 9 9 8 8 10 9 9 8 9
15 15 6 8 8 10 8 12 11 9 9 16 13 8 20 18 13 10 6 9 9 14 13 13 13 15 17 17 13 14 11 14 14 19 24 24 21 17 18 18 17 16 15 14 14 15 15 15 17 17 14 15 14 16 17 16 15 14 14 14 15 13 12 9 10 12 12 10 12 12 11 11 11 11 11 11 11 10 11 10 10 11 11 10 11 10 9 9 8 8 10 10 8 9 7 9 11
16 9 12 13 9 8 8 6 8 8 14 16 15 8 11 22 12 10 8 10 11 10 12 11 11 14 16 14 14 14 14 10 10 12 14 16 17 20 19 20 18 17 15 16 17 16 16 16 15 15 15 14 15 16 16 16 15 14 15 15 15 14 13 12 13 12 11 10 12 11 11 12 12 13 12 12 11 11 11 11 11 11 9 11 11 10 11 11 10 10 9 8 8 9 8 8 6
7 14 11 11 14 13 11 11 9 14 19 14 9 7 7 12 13 13 13 10 9 11 12 11 14 15 17 17 16 14 12 10 12 15 18 19 21 19 21 21 20 19 19 17 16 15 15 15 15 15 14 16 15 16 15 16 16 16 14 14 15 14 14 14 16 15 15 15 14 13 11 9 10 10 10 11 11 11 11 11 11 10 10 10 11 11 10 10 9 9 8 9 8 7 7 8 7
9 5 11 8 17 16 18 11 18 15 21 10 5 7 8 11 18 15 12 11 10 10 11 10 11 14 16 16 18 15 13 10 13 14 18 18 21 21 22 22 22 20 21 19 19 19 19 20 21 21 22 22 21 20 21 18 16 16 16 15 13 13 13 14 15 14 13 14 14 12 11 12 11 11 15 17 13 13 13 12 12 13 12 11 10 10 10 11 10 9 10 10 9 10 10 10 10
14 8 5 8 11 11 13 13 12 14 15 12 12 5 15 12 17 13 13 12 10 16 13 9 8 12 14 16 15 16 13 12 10 16 17 21 22 22 24 25 26 26 25 25 25 24 21 19 20 21 21 20 19 19 19 18 18 17 15 14 13 13 13 13 14 15 14 14 13 13 13 13 14 15 14 15 14 13 13 13 13 12 11 10 10 10 11 10 10 10 9 10 11 11 9 10 10
13 5 6 10 9 18 21 13 18 18 19 15 7 13 19 7 13 8 10 12 9 7 15 12 10 10 13 12 17 16 15 11 12 14 21 21 23 24 25 26 27 28 28 28 27 25 26 24 23 25 22 20 20 20 18 18 18 16 15 14 13 12 13 13 14 13 14 14 13 13 12 11 13 12 14 13 12 13 14 12 12 12 12 12 11 11 11 9 10 10 11 11 11 10 10 9 9
8 4 10 11 16 11 17 16 14 14 16 18 11 21 11 16 6 9 9 8 6 7 7 9 10 11 12 16 15 16 14 11 10 13 18 21 22 25 25 26 28 29 26 27 26 26 22 22 21 21 20 19 19 18 17 19 18 17 15 15 15 14 13 11 10 10 11 13 13 13 12 11 12 11 10 11 12 13 13 13 13 13 12 12 13 13 11 11 10 11 10 11 11 10 11 11 10
13 13 18 15 11 10 10 10 6 4 9 23 9 18 17 15 8 7 10 8 8 5 8 13 13 10 10 14 12 13 15 13 13 15 16 19 20 22 24 23 27 28 26 28 27 29 28 24 20 17 14 17 20 19 19 17 18 17 17 16 13 13 13 13 14 12 12 11 11 12 12 11 9 10 11 10 11 11 11 12 13 12 13 13 12 12 12 11 11 12 12 11 11 10 12 12 9
9 9 15 9 4 10 10 16 15 13 16 30 7 12 13 12 27 12 11 10 12 8 9 10 10 10 14 16 16 15 12 11 11 15 17 20 21 21 19 22 26 24 22 19 26 27 25 22 21 21 17 13 15 17 17 16 17 17 16 16 15 15 15 14 13 13 12 12 11 12 12 11 12 11 11 10 11 13 13 13 12 11 11 11 12 12 12 12 12 13 13 13 11 10 9 8 10
8 6 8 12 16 20 9 14 17 18 24 23 13 8 13 17 21 14 14 17 16 17 13 9 13 18 18 19 19 17 18 16 14 13 14 17 20 20 19 16 20 17 17 17 16 14 11 9 13 18 20 15 9 12 14 16 17 17 16 17 16 16 14 13 13 15 15 16 16 14 14 14 11 12 13 12 12 11 11 11 11 10 10 12 12 12 12 12 12 12 12 11 10 12 14 15 15
11 5 12 5 7 12 12 23 14 17 17 13 20 5 28 17 18 22 26 24 19 19 12 11 15 16 18 18 18 18 18 18 18 15 14 14 14 16 19 22 20 18 18 14 12 12 12 13 11 12 8 7 7 11 16 19 20 19 18 16 18 23 23 22 19 19 19 18 17 16 15 13 14 12 12 13 13 12 12 12 11 12 13 12 12 13 14 13 13 12 12 12 12 12 13 13 13
18 19 18 16 14 10 10 12 14 17 21 16 19 27 21 16 13 24 25 23 21 20 18 14 16 17 18 17 16 16 16 17 18 16 16 16 15 18 19 16 16 12 10 8 6 8 10 9 11 11 12 13 14 12 14 17 17 18 17 17 20 20 19 18 17 17 18 17 16 16 15 14 11 12 12 13 13 13 12 12 12 12 12 11 11 11 10 11 12 12 12 13 13 13 13 12 11
10 9 13 10 10 17 15 24 8 10 15 21 18 31 22 19 16 12 14 18 22 24 19 18 23 26 24 21 17 19 17 16 15 15 14 15 15 17 19 19 14 13 10 9 11 10 8 9 8 8 9 10 13 15 12 13 14 19 23 29 29 22 21 19 18 17 18 18 17 17 16 13 13 14 13 14 13 13 13 14 13 13 12 12 12 11 10 11 12 12 11 12 14 14 13 12 13
Wind_Speed
4 5 2 2 3 2 0 4 0 3 2 4 3 1 3 2 1 0 2 2 0 2 3 2 3 4 2 3 8 7 3 7 6 9 5 2 1 3 2 1 6 6 8 7 5 5 7 11 12 14 15 15 15 15 16 16 16 16 16 16 16 15 15 14 14 14 14 14 14 15 15 15 15 16 15 14 14 14 14 15 14 14 14 13 13 13 13 13 12 10 9 6 12 13 11 11 11
2 4 3 1 1 1 1 1 3 3 4 3 5 1 4 2 1 3 4 6 4 1 4 4 2 1 3 4 4 1 3 8 8 2 2 3 3 0 3 3 7 9 5 5 6 6 7 9 14 15 16 17 16 17 17 17 17 16 16 16 16 16 15 15 15 14 14 14 14 15 15 15 15 16 15 15 14 14 14 14 14 14 13 13 13 13 12 12 12 12 11 8 6 10 11 12 11
2 5 5 4 2 3 1 3 3 1 2 3 6 6 2 1 4 5 9 8 7 2 3 4 1 0 1 1 0 4 4 0 1 1 1 3 1 2 3 3 6 9 8 4 6 7 7 11 16 17 18 19 19 18 18 18 17 16 17 16 16 16 15 15 15 14 14 14 14 14 14 15 15 15 15 15 15 14 14 14 14 14 13 13 13 12 12 11 11 12 12 11 9 9 10 9 9
2 2 1 3 2 4 1 2 4 1 2 4 5 4 2 2 6 8 8 5 3 4 2 2 2 1 4 2 3 2 4 3 2 4 1 1 4 3 6 5 8 7 7 6 7 8 8 13 17 17 17 18 18 17 17 17 18 17 17 17 16 16 15 15 14 14 13 13 13 13 14 14 15 14 14 15 15 15 15 14 14 14 13 12 12 12 11 11 11 11 11 11 10 10 9 8 8
2 1 2 2 2 2 1 0 2 3 2 3 3 5 3 5 7 3 4 2 3 5 3 3 0 1 2 1 1 1 4 2 2 3 1 2 1 7 8 7 7 8 9 8 8 7 7 15 14 13 14 16 17 16 16 17 17 17 16 16 16 15 15 14 14 13 13 13 12 12 13 13 13 14 13 14 15 14 14 15 14 13 12 12 12 11 11 11 10 10 10 11 11 11 10 8 8
3 1 3 1 1 2 4 1 1 3 8 4 1 5 3 4 4 2 4 0 2 2 3 4 3 3 1 2 3 2 3 2 2 1 3 3 7 8 10 9 9 9 8 7 6 5 4 14 13 12 13 15 16 17 17 17 16 16 16 15 15 14 14 14 13 13 14 13 13 12 12 13 13 13 13 13 14 14 14 14 13 13 13 12 12 11 11 11 11 10 11 11 11 11 11 10 8
1 3 3 3 1 4 3 2 5 4 9 8 4 6 9 9 5 3 2 1 1 1 3 3 1 3 1 1 1 3 0 2 1 1 3 4 8 9 10 9 9 9 8 6 5 5 6 15 14 14 14 16 16 16 15 15 15 15 14 14 14 14 13 13 13 13 13 13 13 13 12 12 13 12 12 12 13 13 13 14 13 12 12 11 12 11 10 11 11 11 12 11 11 11 11 10 9
1 1 1 2 1 3 0 1 5 3 6 8 4 5 8 9 4 2 3 2 2 4 4 3 1 1 4 2 3 1 2 2 1 3 4 9 10 10 10 10 10 9 8 7 7 6 11 17 12 13 12 14 15 15 15 14 14 14 13 13 13 13 13 12 12 12 12 12 13 12 12 13 13 13 12 12 12 13 12 13 12 11 10 10 10 10 10 10 11 11 11 11 11 11 11 9 8
3 3 0 3 1 1 1 3 6 3 7 3 10 9 10 7 4 2 3 4 1 3 2 5 5 3 3 0 4 1 1 1 2 5 7 10 12 11 8 10 11 9 9 8 7 6 5 14 10 10 10 13 14 14 14 14 13 13 13 13 13 12 12 12 12 11 11 12 12 12 12 12 12 13 13 13 13 12 12 12 12 11 10 9 9 9 10 10 10 10 10 10 10 10 10 9 8
1 2 2 2 2 4 2 6 0 5 5 5 7 10 8 6 5 5 5 4 7 0 5 3 5 5 1 4 3 3 2 6 5 4 7 10 10 8 7 8 7 9 8 8 7 5 3 13 13 9 9 11 12 12 13 12 12 13 12 12 12 11 11 11 11 11 11 11 11 11 11 12 13 13 13 13 13 12 11 11 11 10 9 8 8 9 10 10 9 9 9 9 10 10 10 9 8
0 4 2 2 3 2 3 8 5 7 5 6 8 13 13 5 5 4 5 5 1 4 2 7 1 6 1 3 5 1 3 7 8 10 9 8 6 7 5 3 4 6 8 8 8 5 5 6 15 14 12 9 11 11 10 10 11 11 12 12 12 11 11 11 11 11 11 11 11 10 10 11 13 12 13 13 12 12 12 11 10 10 9 8 8 8 9 10 9 8 8 8 9 9 9 8 7
1 0 2 1 2 3 5 4 10 9 9 2 5 4 4 7 4 2 5 6 4 4 3 8 3 6 1 3 4 2 3 8 9 8 9 6 5 3 5 5 6 4 5 7 7 4 5 6 7 12 14 12 10 11 10 10 10 11 11 11 11 11 11 11 11 10 10 11 11 10 10 12 12 12 12 12 12 12 12 11 10 9 9 8 7 7 8 9 8 7 7 7 7 8 8 7 6
2 1 5 2 3 1 3 3 6 5 7 6 4 4 1 7 7 11 6 10 1 2 5 11 3 5 3 4 3 3 5 12 6 7 7 6 6 5 5 6 6 6 5 5 7 6 5 5 5 6 9 14 12 12 10 11 10 11 11 11 11 11 10 10 10 11 10 9 10 10 10 12 12 12 12 12 12 11 11 11 10 9 8 7 6 6 7 7 7 7 6 6 6 6 7 7 6
2 5 3 4 1 2 2 5 4 4 7 6 3 2 2 3 7 6 4 4 6 6 3 8 3 4 2 2 6 5 9 5 9 8 6 6 5 5 6 6 7 6 6 6 7 7 5 5 5 5 7 7 5 10 12 13 11 11 11 10 11 11 10 11 10 10 10 11 11 11 11 12 13 12 11 11 11 11 10 10 9 9 8 6 5 6 7 7 7 6 5 5 4 5 5 6 6
0 2 2 1 2 1 3 2 2 1 7 3 4 1 1 5 1 5 9 7 12 3 1 2 4 4 6 7 8 7 7 10 11 9 7 6 6 5 6 6 6 6 5 5 4 4 4 5 5 4 5 5 5 5 5 9 13 12 12 11 11 11 11 11 11 11 11 12 12 11 11 12 10 10 11 11 10 11 10 10 9 8 8 6 5 5 6 6 6 5 4 3 3 3 4 5 5
4 4 2 1 3 1 4 3 1 1 7 2 3 2 0 9 1 4 6 8 2 0 3 4 2 4 3 6 9 3 4 13 10 8 7 7 6 6 6 6 5 5 4 4 4 4 4 4 4 4 4 5 5 5 5 5 10 13 12 12 13 12 12 11 11 11 12 11 12 11 12 7 6 6 9 8 11 11 11 8 9 8 7 7 6 5 5 5 5 4 3 2 2 3 4 4 5
2 4 1 0 6 1 4 1 0 4 7 4 6 2 1 3 3 3 1 2 2 2 2 1 5 1 4 6 2 7 9 11 11 10 8 7 6 5 5 4 5 4 3 4 4 4 5 6 5 4 4 5 5 4 4 5 7 13 11 13 13 13 12 11 11 12 10 8 8 10 9 4 6 4 5 5 10 6 9 10 9 8 7 6 6 5 5 3 3 3 3 1 2 2 3 5 6
2 2 3 3 6 3 5 4 6 1 3 11 6 2 1 6 2 1 1 0 2 1 3 1 2 5 3 2 6 8 8 11 12 13 10 8 7 6 7 6 7 6 5 4 3 4 5 6 6 5 5 6 4 4 4 4 4 9 5 6 6 8 9 9 8 3 5 3 10 6 4 4 4 5 7 7 5 6 7 9 9 7 6 6 7 6 6 5 3 2 1 1 2 3 4 3 3
3 1 2 8 4 7 6 3 4 1 9 8 14 3 5 9 3 2 3 4 2 3 2 1 4 7 3 3 6 10 9 10 13 13 14 13 11 12 9 7 7 6 6 6 5 5 4 5 5 6 6 6 5 4 4 4 4 4 4 5 4 7 6 5 4 3 5 4 5 3 4 4 5 5 6 5 3 7 5 8 8 7 6 6 7 7 6 6 4 2 1 1 2 4 4 3 3
4 3 4 7 7 5 5 1 7 5 8 13 13 7 5 5 0 1 4 5 2 7 5 3 4 9 11 3 7 9 9 9 12 15 15 14 13 10 9 9 8 8 8 6 6 5 5 5 7 6 7 7 7 5 4 4 4 4 4 5 4 3 3 4 4 4 3 1 1 3 4 3 3 3 6 6 3 3 2 6 5 8 7 6 7 6 6 7 5 3 1 1 2 2 2 3 3
2 2 3 6 1 4 1 6 8 11 6 5 7 5 5 5 8 2 4 0 3 6 8 10 13 14 12 7 9 10 10 10 11 12 13 14 12 8 10 9 8 8 6 5 5 6 6 6 7 6 7 7 7 6 6 5 4 4 4 5 4 4 4 5 4 4 3 2 3 3 4 4 3 1 5 6 3 3 3 0 3 2 3 2 4 2 1 1 1 1 2 2 1 2 3 3 3
3 7 6 6 3 6 10 6 9 6 6 5 6 6 8 1 0 4 3 6 7 8 12 12 13 13 8 10 11 10 12 12 12 11 14 15 16 13 8 6 3 3 5 6 7 6 7 6 7 6 7 7 7 6 6 6 6 5 5 4 5 4 5 5 5 5 5 4 4 4 4 4 3 5 3 5 1 1 3 1 3 4 3 3 2 3 1 0 1 1 2 2 2 2 2 2 2
3 3 4 5 7 6 6 4 5 2 5 5 5 5 2 2 3 4 7 10 9 10 7 12 15 12 9 8 12 13 12 13 14 15 14 14 12 11 9 8 7 7 7 7 7 6 6 6 6 7 7 7 7 6 5 5 5 5 5 5 5 5 4 5 5 5 5 5 5 5 5 4 4 5 4 6 5 4 4 3 3 3 4 3 1 2 3 2 2 1 2 3 3 3 3 2 3
3 6 1 7 4 7 10 10 8 7 6 8 5 3 4 6 9 2 6 10 13 7 5 6 8 3 9 11 13 16 17 17 17 15 16 15 15 15 12 11 9 6 6 7 7 6 7 8 7 7 6 6 6 6 6 5 4 5 5 6 5 6 5 5 4 5 5 5 5 4 5 4 4 5 4 5 5 4 4 3 3 3 3 3 2 2 3 3 3 1 2 3 4 3 3 4 4
2 4 3 4 2 6 8 7 8 9 10 12 6 5 10 8 6 1 7 12 12 10 4 4 5 6 7 9 13 14 13 12 11 11 10 7 7 6 5 6 6 6 8 7 7 7 7 7 7 8 6 7 5 6 6 5 5 5 5 5 5 7 5 5 5 4 5 5 5 5 5 4 4 4 4 3 3 3 3 3 3 3 3 3 3 3 3 3 3 3 3 3 3 4 4 4 4
2 3 5 8 8 10 9 10 9 10 8 5 4 10 12 6 4 4 14 14 3 4 2 3 5 7 9 12 14 14 13 15 12 12 15 10 7 8 8 8 7 9 9 8 8 8 7 6 8 9 9 7 7 6 6 6 6 5 5 5 5 6 4 4 5 5 4 5 5 5 6 4 4 4 4 4 4 4 3 3 4 4 4 3 3 4 3 3 3 3 3 3 3 3 4 3 3
1 6 7 8 12 10 5 6 9 7 4 4 3 8 8 1 4 8 5 6 1 1 3 3 7 9 11 9 9 10 12 13 15 11 7 7 7 9 9 8 10 10 8 9 8 7 8 8 8 9 8 9 6 7 6 6 6 5 5 4 5 5 4 5 4 5 5 5 5 6 5 5 4 4 4 4 4 4 3 4 4 4 4 4 4 4 2 3 3 3 3 3 3 3 4 3 3
6 7 6 8 9 8 7 8 12 3 5 1 4 8 8 3 2 7 16 1 4 4 4 5 6 8 9 10 9 8 8 8 5 7 13 11 11 11 10 10 10 9 9 9 8 7 7 9 9 8 8 9 8 7 7 6 6 6 6 4 5 4 5 5 4 4 5 4 5 5 5 5 6 5 5 4 4 4 4 3 4 4 4 4 4 3 3 3 3 3 3 3 3 3 4 3 3
5 5 10 8 8 10 4 4 1 3 4 5 1 5 8 1 4 10 5 1 2 4 5 6 8 8 8 7 6 6 9 7 7 9 13 12 7 8 11 10 10 9 7 7 8 8 9 9 9 9 8 8 8 8 7 6 5 6 6 6 5 4 4 5 5 5 4 4 4 5 5 5 5 5 5 5 5 4 4 3 4 4 4 3 3 4 3 3 3 3 3 3 3 3 4 4 3
4 1 3 10 7 7 2 2 3 6 4 7 0 7 11 8 10 13 10 2 1 1 4 5 5 7 7 6 7 7 5 7 10 12 10 8 8 9 10 9 9 8 7 5 5 8 7 6 6 7 8 9 9 7 6 6 6 6 5 5 5 5 5 5 5 5 5 4 4 5 5 5 5 4 5 4 4 4 4 4 4 4 3 3 3 3 4 3 4 4 3 2 3 3 4 4 3
4 5 3 2 7 7 5 4 6 3 3 5 3 3 10 10 16 14 2 5 4 7 6 5 6 7 7 7 7 9 9 10 10 10 7 6 6 7 9 7 8 8 5 5 8 7 7 7 7 7 9 9 9 8 8 7 6 6 6 5 5 6 5 5 5 5 5 5 5 5 5 5 5 5 5 5 4 4 4 4 5 4 3 3 3 4 4 3 4 5 3 3 3 3 3 2 3
2 6 4 4 1 9 15 7 2 5 3 5 4 3 6 13 16 16 3 3 4 6 8 5 6 8 8 7 8 9 10 7 7 9 7 7 7 7 9 8 8 8 8 8 6 5 7 7 9 9 11 11 10 9 8 8 8 7 6 6 5 5 5 5 5 5 5 5 5 5 5 6 5 5 5 5 5 5 5 5 5 4 3 3 4 3 3 5 4 4 4 3 4 4 3 2 2
5 2 4 6 3 6 13 2 1 3 2 1 4 5 9 11 14 15 4 1 4 7 10 5 7 8 9 8 9 8 6 6 7 10 9 9 9 7 7 8 9 10 8 8 8 7 7 8 10 10 12 12 10 9 7 7 7 8 7 7 6 6 5 5 5 5 5 6 5 5 6 6 6 6 6 6 5 5 5 5 4 3 3 4 3 3 4 4 4 4 4 3 4 3 3 3 2
4 2 2 2 4 7 7 11 4 2 5 9 1 3 7 12 17 17 12 1 3 7 11 9 6 6 7 6 6 8 9 9 11 13 13 10 8 8 7 7 8 9 8 8 9 10 10 9 9 9 8 9 9 9 9 8 7 7 6 6 7 6 6 5 5 5 5 5 5 6 6 6 6 6 6 6 5 5 5 5 4 3 3 3 3 3 4 3 4 4 5 2 3 3 4 4 4
5 7 6 8 3 4 10 7 3 10 4 3 5 4 10 13 14 15 8 1 5 10 10 7 6 5 6 7 8 9 9 11 15 13 10 9 7 7 7 7 8 8 7 8 8 8 6 7 7 9 9 8 8 8 7 7 7 5 5 5 6 6 5 5 6 4 5 5 5 5 5 5 5 6 6 6 6 5 4 4 4 4 3 3 2 2 3 2 3 4 4 2 2 2 5 6 4
7 5 5 4 5 12 11 12 9 0 7 12 12 8 12 15 16 16 6 4 5 11 7 7 6 5 7 9 10 9 11 15 14 5 6 6 7 8 7 6 7 8 7 7 8 7 8 7 7 7 7 8 7 7 6 6 6 6 7 7 6 6 5 5 6 6 5 5 5 6 6 6 5 5 6 6 5 5 5 5 5 4 4 3 3 3 4 3 5 5 5 5 4 2 1 2 4
2 1 2 7 7 11 12 10 7 3 5 8 11 8 6 12 14 15 8 7 6 6 10 10 9 5 7 8 10 13 12 18 6 5 5 6 7 8 8 7 7 8 8 9 8 8 9 9 9 8 7 7 8 8 9 7 7 6 8 9 9 8 7 6 5 6 5 5 6 5 6 6 6 6 6 6 6 6 6 5 4 4 3 4 4 5 5 5 5 5 3 2 5 3 1 1 2
3 3 3 9 3 10 15 11 14 5 1 7 9 5 10 12 13 9 5 3 1 3 7 8 10 9 7 9 12 13 16 3 3 5 7 6 7 8 8 8 9 11 9 10 10 10 9 9 10 8 7 7 8 8 8 7 7 7 6 8 7 7 8 8 7 6 6 5 5 5 5 5 6 6 6 6 6 6 6 5 5 5 5 5 6 5 4 4 4 4 5 3 1 3 3 0 2
1 4 2 3 10 6 14 12 7 2 4 9 8 7 13 14 12 7 4 5 3 3 2 5 6 11 9 8 12 12 6 8 5 6 6 6 8 9 8 8 9 10 11 12 10 9 9 9 8 8 7 8 7 7 7 7 7 7 7 5 8 5 4 5 5 5 6 6 6 6 6 5 6 6 6 7 6 6 6 6 6 5 6 5 5 4 3 2 3 6 7 6 3 2 2 0 2
3 2 1 7 9 3 10 12 3 1 1 6 8 6 12 12 8 4 6 4 3 4 4 5 4 8 10 9 7 9 11 11 12 10 8 7 8 9 9 9 9 8 9 8 9 11 8 9 8 7 7 7 6 7 7 5 6 5 5 4 5 5 4 5 4 5 6 6 7 7 6 6 7 6 7 7 6 6 6 6 6 6 6 5 5 3 2 3 3 4 4 5 5 3 2 2 1
4 5 5 6 8 9 8 8 10 11 6 5 5 4 7 5 6 5 5 4 4 4 5 6 6 6 7 9 7 9 11 10 9 5 6 7 8 12 13 9 9 9 9 10 10 9 7 10 9 8 7 7 6 6 8 5 6 5 4 4 4 4 2 5 5 5 5 6 6 7 6 7 7 7 7 7 7 7 6 6 6 5 5 5 5 6 7 6 5 5 6 5 6 5 4 2 1
4 6 11 10 10 10 8 6 4 7 9 1 1 7 5 5 4 7 8 6 8 3 3 8 8 9 8 9 7 6 9 7 9 9 9 8 9 5 7 9 10 8 8 7 7 8 9 9 9 8 6 6 6 6 7 6 6 5 6 6 6 6 6 7 9 9 7 8 7 6 7 7 7 7 7 7 7 7 7 6 6 6 5 5 5 5 5 4 4 5 6 6 6 4 5 4 3
0 9 8 11 10 6 6 10 1 2 6 6 3 4 8 6 5 6 4 5 9 8 4 8 6 5 4 6 6 6 8 6 5 5 6 5 5 7 7 7 5 5 4 7 7 8 8 8 8 8 7 6 6 7 7 6 5 5 6 6 6 6 6 5 3 4 5 5 4 5 5 7 7 7 7 7 7 8 7 6 6 6 6 5 4 4 4 5 5 5 4 4 2 3 4 4 6
3 8 4 4 4 5 7 6 5 7 1 4 2 3 6 4 9 5 4 4 8 9 9 8 7 6 5 5 7 6 7 5 7 8 9 8 7 6 5 9 7 7 7 7 7 7 9 9 9 9 7 8 6 7 8 7 6 5 6 6 6 4 5 3 5 4 3 4 5 6 4 4 5 7 6 6 6 7 6 6 6 6 5 5 4 5 5 4 4 3 4 5 5 6 7 6 5
7 8 5 6 7 7 6 4 6 4 2 8 6 1 2 3 6 3 2 3 6 9 9 8 9 9 8 5 7 9 7 6 7 7 8 6 6 9 10 10 9 9 8 8 7 7 8 9 10 9 8 8 6 8 8 7 7 5 6 5 6 5 3 3 3 4 4 5 5 5 5 4 4 5 6 7 6 6 6 5 5 6 5 5 5 5 4 5 6 5 4 4 6 5 5 5 5
8 5 3 3 1 2 1 4 5 3 1 7 6 3 5 6 6 5 1 1 5 8 9 9 9 9 10 10 7 7 7 4 3 4 6 8 8 9 11 12 11 8 8 9 9 8 8 9 11 11 9 7 6 7 7 7 7 6 6 6 7 5 4 4 4 5 5 4 5 5 5 5 6 6 5 6 7 5 5 4 5 6 6 5 6 6 6 5 5 5 6 6 5 6 4 5 6
4 5 5 5 2 2 3 2 1 1 3 7 10 1 3 5 4 4 1 2 3 6 6 6 7 9 9 6 8 8 9 3 3 8 9 9 10 12 12 13 12 9 8 10 10 10 8 8 9 9 9 7 8 8 8 8 8 8 7 7 8 7 6 5 5 5 5 6 6 5 6 6 5 4 2 3 4 4 5 5 6 6 6 5 6 6 6 6 6 6 5 5 5 6 5 5 3
1 1 1 5 6 6 1 3 2 1 5 8 2 1 2 3 3 6 7 5 5 5 6 7 10 10 11 11 10 9 8 6 8 9 10 11 10 11 13 13 12 11 10 10 10 10 9 8 9 10 10 11 10 9 9 9 8 9 7 7 8 7 6 5 6 7 6 6 6 5 5 5 5 4 4 5 5 5 5 5 6 5 5 5 5 6 6 6 5 5 4 5 5 4 4 5 4
5 2 5 4 5 5 3 4 4 3 4 1 2 2 1 5 9 8 8 7 5 4 6 5 5 9 10 11 12 10 8 6 7 8 8 8 10 12 13 13 12 12 12 11 12 11 11 11 13 14 14 14 13 13 14 12 10 10 9 8 8 7 7 6 6 6 5 5 6 6 5 6 5 6 7 9 7 7 7 6 6 6 6 6 6 6 6 6 5 5 5 5 5 6 6 6 5
8 3 2 2 3 3 3 5 2 5 6 4 1 1 3 4 8 4 6 7 5 5 5 4 3 5 9 10 9 9 7 5 1 8 9 10 10 11 12 12 11 9 9 10 11 11 11 11 12 13 13 13 12 12 12 12 11 10 10 9 7 7 7 6 6 6 6 5 5 6 6 6 6 7 8 8 6 6 7 7 7 7 6 6 6 6 7 6 6 5 5 6 6 6 5 6 6
4 2 0 2 2 0 4 3 5 7 8 6 3 3 4 4 3 2 7 7 5 3 2 1 2 4 4 5 6 9 8 4 1 1 4 8 12 13 12 11 11 11 12 11 10 9 10 10 12 15 13 12 12 12 11 12 10 10 9 8 7 6 6 6 6 6 6 6 5 6 6 6 6 6 7 6 6 7 8 7 7 7 6 6 6 6 6 6 5 5 6 6 5 5 6 5 5
2 2 4 5 2 4 3 5 5 4 5 5 1 5 4 4 2 5 3 5 3 2 3 5 6 5 5 6 7 6 6 5 2 4 4 6 9 9 9 10 11 10 11 10 4 3 3 3 2 1 2 5 7 7 7 8 8 7 8 8 7 6 6 5 5 5 5 6 7 6 6 6 5 5 5 6 6 6 7 8 7 6 5 5 6 7 7 6 6 6 6 6 6 5 6 7 5
3 3 2 2 3 5 1 3 1 0 2 7 1 6 6 6 4 3 6 5 6 3 5 6 5 5 5 6 6 5 3 4 3 6 7 8 6 6 7 8 9 9 9 5 5 6 6 4 5 6 6 5 6 7 5 6 6 7 8 7 5 6 6 7 7 7 7 6 7 7 6 6 5 5 5 5 7 6 4 5 6 7 8 7 7 7 7 7 7 7 7 7 7 6 6 7 4
2 2 3 3 1 3 1 2 3 2 3 7 2 3 4 6 6 6 8 7 8 5 7 6 5 8 10 11 10 11 8 3 3 7 8 12 11 8 6 5 5 5 3 7 9 6 5 5 4 6 6 6 6 6 6 6 7 8 7 6 6 6 5 6 6 7 7 7 7 7 7 6 7 6 6 5 6 8 8 7 6 6 5 5 6 6 6 6 6 7 8 7 5 5 4 3 5
3 1 2 2 2 6 3 2 4 2 4 5 4 1 3 3 8 7 7 8 11 11 9 6 9 12 11 10 11 10 11 11 6 3 6 6 3 1 2 2 2 2 3 5 7 6 5 5 5 5 5 5 5 5 5 6 8 6 5 5 4 3 2 6 8 9 9 9 10 9 9 8 7 7 7 7 7 6 6 7 7 6 6 7 7 6 6 6 7 7 7 6 6 8 8 6 5
1 1 2 1 2 5 1 4 3 3 5 3 7 1 8 3 2 4 11 10 12 13 8 7 8 6 6 7 8 8 9 9 10 10 4 3 4 2 1 1 2 3 3 5 5 5 6 6 7 6 5 5 5 4 4 4 5 3 7 8 11 13 12 11 10 9 9 9 9 9 9 8 9 7 7 8 8 8 7 8 7 7 7 7 7 7 7 7 7 7 7 7 7 7 7 7 7
8 8 5 3 1 3 0 1 2 4 3 4 2 7 3 3 3 4 6 7 9 9 5 3 3 4 6 6 6 6 6 7 7 8 8 3 1 3 2 2 4 4 3 4 3 4 4 4 6 7 8 8 7 7 7 7 10 10 10 10 13 12 12 10 10 9 9 8 7 6 6 7 6 7 7 7 8 8 8 7 8 7 7 7 7 6 6 6 7 7 7 7 8 8 8 7 6
3 1 3 4 2 5 4 9 2 2 0 3 0 7 7 7 2 3 1 3 4 8 6 3 4 6 6 6 6 6 6 7 6 6 7 6 2 2 3 3 4 2 3 3 2 4 5 4 4 3 4 4 5 6 6 6 6 11 14 18 13 9 9 9 11 10 10 9 9 10 9 6 7 7 7 7 8 8 8 8 8 8 8 7 7 7 6 6 6 6 7 6 8 9 8 7 7
Wind_Direction
340 306 347 37 69 79 62 1 49 308 50 254 319 317 263 243 221 27 261 2 264 248 184 83 133 126 164 202 196 196 200 138 206 132 220 236 66 333 257 41 104 98 126 136 132 133 155 156 154 151 148 149 150 151 154 154 152 149 144 141 140 138 136 136 135 135 138 140 141 141 141 141 142 143 143 140 137 135 133 132 129 129 131 131 128 125 122 121 119 114 107 108 123 107 103 103 98
298 325 20 32 53 59 309 117 103 353 36 1 252 130 250 291 114 221 210 194 201 207 168 121 177 160 186 217 188 147 280 209 178 195 257 249 322 339 161 118 124 125 128 137 132 141 152 160 159 160 156 156 158 160 161 160 157 153 150 147 145 143 142 140 141 142 143 146 146 146 146 147 148 148 145 142 139 137 134 131 132 135 133 130 127 125 121 119 120 120 118 118 118 121 110 108 105
353 10 11 34 32 67 61 42 309 64 48 300 273 216 322 293 204 234 220 208 204 248 140 103 161 140 337 98 251 157 252 256 260 317 228 334 59 224 152 147 120 130 135 147 143 157 161 167 168 166 163 164 162 165 165 162 159 157 153 150 148 147 146 145 144 145 146 149 150 149 151 152 152 150 147 144 141 138 136 135 137 137 134 131 129 125 124 122 120 119 121 122 124 128 117 112 107
71 50 114 54 291 35 63 25 97 128 270 216 309 270 218 202 250 232 239 225 172 128 134 174 150 251 127 174 217 51 288 329 185 168 320 241 197 161 136 143 135 133 143 155 163 167 163 172 171 170 166 166 163 165 165 164 162 159 156 153 151 150 149 147 146 146 147 151 152 154 156 155 154 150 148 145 144 142 141 140 141 140 137 138 131 126 125 122 120 120 119 117 123 120 111 112 116
48 334 86 100 105 343 94 272 137 111 261 197 210 277 236 223 250 271 290 288 228 156 137 163 83 296 174 178 165 149 245 245 302 196 177 226 149 147 144 151 145 152 159 167 166 165 166 169 169 169 165 167 163 165 169 167 164 162 158 155 153 151 152 151 149 148 149 152 154 157 159 158 156 151 150 148 146 146 144 143 145 143 140 137 129 126 121 116 114 113 115 118 123 122 119 120 123
55 39 350 92 292 181 51 354 299 195 227 142 232 258 261 249 251 255 262 136 234 194 180 160 179 200 221 223 183 189 204 136 179 227 152 222 155 152 153 157 158 161 166 161 157 143 150 170 166 166 170 171 168 168 170 170 166 162 159 155 154 152 152 154 153 152 152 154 155 160 165 161 158 152 151 149 148 149 148 147 148 145 142 137 130 124 118 114 113 117 119 120 122 121 124 129 132
335 37 354 22 8 56 174 183 254 222 268 168 235 258 256 271 241 258 314 38 157 225 200 203 108 76 335 273 325 243 38 99 85 223 170 154 150 161 159 161 160 163 157 147 140 147 166 173 170 172 176 174 171 168 169 170 166 163 159 157 155 154 154 156 156 157 155 155 159 164 170 160 159 154 153 151 150 151 152 149 149 149 144 140 135 129 121 118 118 116 117 119 122 119 122 126 128
86 100 305 97 267 33 347 258 271 157 277 173 231 243 256 256 256 199 231 139 246 170 217 194 250 123 250 333 204 297 33 336 176 165 148 143 158 167 168 161 161 164 155 147 153 162 177 173 169 172 176 172 170 168 168 169 166 165 160 158 156 156 155 156 159 161 158 158 160 166 168 162 160 158 156 154 152 153 154 153 153 151 146 144 138 131 121 113 105 105 109 114 118 118 118 119 123
355 90 7 72 352 32 10 267 264 230 273 259 264 238 262 250 239 193 215 200 341 241 228 187 190 111 263 296 228 232 313 225 163 152 155 154 165 171 170 169 165 157 154 155 155 163 180 174 163 167 170 175 169 169 167 169 167 165 162 159 159 157 158 158 160 163 157 160 162 168 167 164 160 160 162 156 155 155 156 156 156 155 154 151 142 131 119 108 100 100 105 109 111 110 109 116 124
30 63 312 121 129 302 329 278 287 239 232 229 254 264 239 232 234 206 217 250 215 34 238 174 160 204 186 217 298 300 217 169 157 140 172 169 165 164 171 174 156 147 151 153 151 157 166 175 164 162 172 173 171 167 168 169 169 166 162 160 159 158 158 160 162 161 159 160 164 169 170 165 165 164 163 160 158 157 156 157 156 155 154 150 143 135 122 112 106 105 102 104 106 106 105 109 117
22 9 148 69 20 337 286 281 242 297 267 288 270 248 243 223 200 215 200 230 211 194 335 129 35 237 121 262 218 263 227 167 161 167 177 170 160 168 154 108 105 153 150 148 151 153 162 168 172 172 173 172 161 171 167 170 171 167 163 161 159 160 161 164 165 164 163 163 166 171 170 168 169 169 165 163 161 159 158 156 157 156 154 151 151 140 127 116 111 107 101 99 100 101 103 108 113
3 23 10 111 229 206 251 257 292 287 292 266 269 267 226 197 157 221 213 219 222 230 201 159 219 146 231 309 286 255 209 203 207 161 165 156 162 141 124 115 113 121 143 144 153 151 159 165 167 173 172 168 167 166 166 173 167 169 165 162 159 163 164 167 168 169 167 171 167 175 173 173 173 172 167 166 164 162 159 158 158 159 157 157 152 142 130 118 116 108 101 94 93 97 101 104 104
107 80 74 97 239 147 252 307 263 317 319 306 263 284 109 142 183 213 198 214 156 179 264 208 106 134 235 212 245 291 232 220 183 151 151 157 159 132 107 105 106 113 130 140 146 158 157 162 151 165 171 174 171 170 164 175 164 165 168 165 164 164 170 172 173 175 170 163 178 181 173 179 179 173 170 169 169 165 162 160 163 161 160 162 161 151 134 122 115 110 100 93 87 87 91 92 90
119 182 125 276 79 201 226 258 305 336 308 266 252 279 180 170 227 191 123 181 220 201 242 175 120 145 242 349 294 247 238 167 155 150 151 148 133 119 108 109 113 127 141 156 163 163 153 146 145 158 171 166 165 174 174 173 165 169 167 166 172 169 172 177 180 181 170 181 181 181 182 180 184 174 174 173 170 167 164 163 164 165 166 165 174 160 145 130 118 109 99 90 80 76 78 82 78
296 161 84 121 307 15 237 196 217 150 266 260 271 118 267 263 81 142 173 183 237 184 41 106 162 116 246 174 278 234 219 141 149 150 139 123 119 112 109 112 120 137 160 170 150 138 139 134 144 156 157 150 155 156 164 177 171 172 171 173 173 176 180 184 188 187 180 186 182 186 187 184 184 182 175 175 172 169 166 165 168 170 172 173 182 150 152 137 125 114 100 88 74 65 63 68 69
151 84 87 322 279 234 270 197 259 165 262 217 266 56 182 275 239 130 238 179 236 233 142 194 223 201 224 174 231 290 56 134 139 131 131 129 122 115 122 127 134 154 164 158 140 106 134 141 144 153 148 153 158 157 163 168 177 171 177 179 182 183 186 192 189 194 191 194 183 189 191 168 187 202 188 180 178 173 171 165 170 173 175 183 183 157 166 148 130 119 104 80 62 47 39 45 52
52 80 298 29 291 199 255 188 106 297 277 275 293 354 229 289 279 215 69 139 157 226 182 208 190 104 199 213 331 25 118 131 133 130 131 136 144 149 144 146 146 152 142 160 156 145 149 154 154 145 150 156 153 153 157 162 183 180 182 185 187 189 189 192 195 198 189 202 207 196 183 160 152 224 217 199 185 180 173 173 172 172 183 191 191 188 187 180 147 118 100 51 4 22 18 40 34
63 161 136 269 215 219 224 198 189 218 309 300 332 290 168 292 295 243 57 271 227 44 187 296 303 254 239 308 49 100 129 142 144 145 154 153 163 168 178 172 165 172 167 165 166 160 160 165 159 150 152 158 152 147 154 165 182 181 166 183 189 195 194 193 192 177 164 164 227 196 141 170 159 164 220 190 166 186 171 174 172 179 182 199 207 200 208 213 206 148 119 356 331 336 28 44 27
135 118 114 242 184 239 164 203 227 320 276 280 295 269 227 241 253 267 172 257 186 237 247 274 244 271 294 31 104 121 138 152 155 160 162 168 178 185 190 177 172 164 178 176 184 185 172 159 158 161 162 155 151 154 162 160 171 149 160 166 181 194 197 183 128 151 151 170 265 130 152 167 174 201 184 173 143 181 152 170 176 173 190 200 213 214 207 208 214 222 227 307 330 1 38 13 6
230 136 250 251 214 246 205 232 267 189 256 286 288 295 170 261 140 282 202 225 77 217 230 269 249 240 235 171 140 141 156 164 170 168 174 180 187 186 181 193 188 188 190 183 171 182 170 164 168 171 167 158 160 162 154 159 154 156 157 159 173 164 130 116 128 121 87 18 337 130 150 156 161 199 197 177 72 345 121 178 189 167 181 200 211 219 221 205 213 238 257 27 30 23 5 0 354
268 119 211 254 204 294 239 208 239 253 239 253 267 288 310 262 231 179 230 62 248 253 235 201 217 227 223 170 162 156 167 173 176 179 183 192 194 193 196 195 194 194 189 163 167 188 180 172 166 172 169 162 162 166 164 169 158 150 154 157 148 139 129 126 118 126 104 149 171 168 156 164 171 68 31 54 42 358 331 40 169 134 120 163 213 102 76 345 34 2 8 32 10 355 341 356 356
120 210 221 262 311 294 271 233 253 250 240 220 275 314 267 314 32 242 161 190 226 215 233 218 227 227 189 173 177 167 179 181 183 184 193 193 196 196 191 196 191 167 161 183 191 182 189 181 174 167 164 168 169 168 171 174 160 160 162 158 142 134 136 141 135 137 179 194 173 169 145 154 137 77 94 100 148 170 272 316 129 124 117 161 44 147 88 86 241 27 19 348 332 313 322 320 328
278 278 270 252 251 258 283 273 244 228 284 267 286 245 345 244 254 227 195 206 236 225 222 211 219 221 195 164 153 177 186 191 190 193 192 199 202 202 191 185 186 188 184 198 188 189 188 180 180 164 169 165 165 163 155 169 163 165 159 160 149 148 142 141 149 147 166 175 169 163 150 151 112 106 139 149 205 167 219 178 120 131 139 151 154 170 204 258 266 269 349 301 303 298 307 298 292
212 265 258 289 237 234 262 276 285 283 263 260 220 4 297 272 290 209 189 234 236 235 227 230 227 134 141 156 179 180 188 191 198 195 195 199 194 198 190 185 188 187 192 193 190 190 190 188 178 170 171 162 158 157 163 176 161 164 170 165 160 165 152 155 157 158 155 163 166 164 151 140 138 129 175 164 197 187 191 133 104 114 170 166 174 176 191 249 264 291 257 287 292 299 315 311 318
220 281 269 264 268 239 263 265 283 280 266 253 285 286 257 219 228 102 246 240 240 256 231 224 160 152 161 175 181 191 196 201 201 196 206 209 204 197 194 192 183 180 199 196 192 189 199 186 171 178 174 172 157 163 173 176 164 165 172 169 159 180 159 159 163 156 157 157 161 162 160 153 143 145 162 172 164 197 164 131 136 160 178 194 173 209 199 226 260 261 267 269 283 303 308 310 328
177 231 292 299 294 288 288 300 285 274 271 249 272 251 260 280 207 254 244 258 244 245 235 155 142 160 184 193 189 184 191 198 194 193 203 195 184 186 196 192 186 192 199 192 189 199 187 182 179 182 177 170 169 170 176 175 172 172 177 176 157 177 161 146 155 162 154 155 161 170 170 160 155 156 172 177 193 215 166 150 151 174 189 188 182 208 214 209 244 274 282 290 297 300 315 305 315
215 283 280 280 275 293 285 263 286 275 255 231 236 287 289 340 55 282 269 230 100 96 161 141 162 190 201 200 193 194 189 193 194 190 176 191 192 193 193 190 195 201 185 194 196 196 187 183 187 182 177 179 165 182 180 178 166 178 174 162 163 178 152 147 164 159 159 167 165 167 165 165 162 164 173 180 200 215 191 169 178 165 199 196 193 213 190 211 219 234 249 266 282 298 283 296 303
303 278 302 293 290 272 260 270 270 310 300 149 185 272 281 282 149 239 266 103 167 162 175 179 193 205 206 207 198 196 201 206 175 165 190 184 199 192 190 192 198 191 187 195 194 182 184 189 182 182 178 177 176 181 185 176 170 174 165 162 169 167 143 156 168 167 173 172 159 163 158 159 184 173 176 178 192 210 208 185 186 188 206 190 189 193 194 209 215 237 242 246 258 269 284 277 251
286 341 310 297 323 315 326 280 315 8 286 350 173 303 313 66 222 256 319 322 169 183 190 193 206 213 217 214 200 193 203 196 182 193 203 202 183 183 195 195 191 190 199 192 182 176 188 186 181 182 176 175 175 180 182 178 164 170 165 175 171 162 159 157 168 182 173 172 165 162 159 166 174 167 175 178 199 204 206 203 208 213 204 187 183 184 191 202 217 230 240 242 253 247 265 273 265
348 270 241 313 336 317 300 326 308 2 276 352 103 331 302 293 261 275 274 282 128 216 212 212 211 218 221 211 209 212 180 195 202 205 208 192 179 182 192 192 188 188 183 176 160 187 183 182 181 174 179 180 179 175 170 169 173 175 177 172 172 165 167 166 173 169 173 167 168 166 166 172 174 167 162 174 183 193 207 220 227 230 211 193 188 182 200 199 219 229 230 231 255 252 262 283 282
310 295 61 278 355 291 277 336 310 357 297 11 74 338 298 294 306 303 321 225 201 249 244 214 209 215 217 214 213 214 214 206 209 214 207 188 183 181 190 178 184 182 164 160 184 184 177 180 177 180 182 183 180 178 174 173 171 179 177 177 174 169 166 168 165 163 170 165 162 168 168 176 171 169 167 167 180 180 197 225 232 236 216 199 208 212 208 212 217 237 215 251 284 274 263 253 205
338 19 312 318 29 289 308 318 112 23 318 14 57 302 256 297 292 294 310 205 212 245 260 223 211 213 215 214 219 223 224 209 218 230 212 196 186 188 184 183 177 179 178 174 175 165 184 186 185 184 182 182 182 181 175 169 171 178 180 182 170 169 164 167 168 169 169 161 163 163 169 177 169 170 169 168 179 191 201 214 230 216 216 216 228 227 211 230 228 243 229 200 260 286 277 249 157
353 69 287 301 323 293 332 328 316 59 322 330 55 255 307 307 302 304 323 172 213 259 269 248 223 217 213 215 215 224 235 232 221 230 215 196 196 189 188 175 178 180 175 167 167 166 185 191 192 187 186 184 181 176 169 166 165 175 179 178 174 167 169 168 166 158 161 166 168 167 168 175 162 168 174 175 177 195 206 221 242 212 207 218 222 219 226 234 229 243 245 198 184 255 229 228 210
316 17 278 225 303 315 314 303 333 156 38 310 130 234 253 261 286 297 305 46 261 255 263 265 240 225 218 223 221 221 223 227 226 225 217 196 192 187 179 178 171 171 176 174 170 172 183 184 192 191 190 186 180 177 172 170 171 170 174 176 172 173 173 165 158 161 172 180 175 180 177 174 163 168 170 174 180 193 197 205 228 205 192 178 183 188 234 228 225 215 247 210 178 191 206 201 211
294 317 332 316 286 211 251 295 266 348 331 272 293 242 270 282 290 292 318 355 247 252 253 263 257 231 220 218 222 226 225 226 231 227 210 200 180 173 169 168 162 165 170 171 168 166 168 184 187 192 187 183 181 177 169 162 158 162 164 169 171 168 163 162 156 175 177 180 184 189 175 189 169 166 170 171 175 186 192 202 214 209 203 199 192 266 273 237 194 194 217 203 137 170 209 199 177
248 251 262 261 298 307 295 279 288 145 323 318 308 299 304 304 299 297 332 329 269 268 282 276 250 229 213 215 219 219 221 232 233 223 204 201 177 158 160 158 158 162 162 163 167 161 166 178 190 184 184 176 172 172 167 158 157 166 175 186 191 177 169 168 166 173 162 178 185 164 179 200 179 169 176 172 173 178 192 203 201 179 199 185 185 242 269 252 217 196 204 174 140 163 32 136 147
283 346 283 275 288 283 277 264 261 65 335 273 278 301 280 282 283 286 327 324 288 292 290 287 280 241 229 222 221 220 220 229 211 197 189 196 168 154 149 150 151 156 160 162 165 169 168 176 180 185 179 175 173 175 173 161 165 165 186 191 195 188 179 173 167 170 167 178 184 174 176 183 179 172 179 173 174 187 193 192 181 191 193 199 209 215 203 216 213 202 172 138 158 160 69 32 101
250 273 272 288 261 272 278 293 298 95 163 282 291 317 286 276 283 294 322 324 255 294 292 289 291 285 248 233 231 225 228 238 159 179 184 180 165 153 150 153 152 160 173 164 172 173 168 171 187 183 174 182 182 179 172 169 175 182 179 188 186 182 186 189 189 172 167 170 172 166 184 177 181 182 182 186 181 181 178 176 183 188 191 206 214 210 188 187 166 151 149 96 22 163 201 86 201
203 240 260 309 273 242 274 273 286 269 152 255 293 311 290 288 286 315 280 263 252 224 231 259 285 291 276 237 238 236 237 227 213 206 189 176 164 159 159 163 174 173 167 171 167 159 163 171 183 183 181 183 181 175 176 183 181 184 184 174 181 174 177 179 164 158 165 172 176 175 179 181 184 190 187 187 189 189 184 174 185 180 192 206 206 203 189 145 163 171 175 158 135 63 114 181 218
226 229 262 258 268 2 306 295 342 146 229 285 279 289 285 291 300 289 254 264 269 259 272 279 255 274 281 270 242 241 228 223 212 202 195 178 171 166 164 173 174 162 160 161 163 162 162 171 175 180 182 185 180 178 181 178 177 167 166 146 168 176 164 168 143 144 165 170 194 182 181 184 191 195 193 192 194 192 185 185 177 186 196 201 200 158 253 193 166 166 163 166 137 130 94 144 66
227 204 219 251 280 265 186 265 323 320 287 219 269 317 302 299 313 327 288 312 333 300 326 315 294 267 273 291 259 233 234 225 225 189 189 182 175 183 181 169 155 168 168 166 163 164 164 170 177 176 176 179 182 179 179 160 162 146 140 120 129 170 155 164 176 188 182 192 190 184 185 182 191 195 197 196 194 194 190 184 180 184 185 193 197 183 194 193 187 182 170 158 171 162 176 205 224
302 224 206 224 240 264 271 265 3 351 317 311 59 343 303 286 285 260 281 342 326 301 320 281 279 298 313 314 300 262 237 218 211 201 198 197 191 158 158 159 165 168 163 154 152 155 154 162 166 168 164 168 172 175 173 163 164 157 153 158 173 185 199 196 200 204 193 198 196 186 180 184 191 198 197 198 199 193 192 187 178 174 187 191 203 203 202 170 176 180 188 174 187 180 151 148 202
53 274 191 220 235 238 255 285 51 319 302 296 53 294 279 319 300 278 293 324 300 306 284 273 277 270 284 285 288 280 249 218 198 184 174 183 177 162 166 159 138 117 116 130 137 144 145 153 160 163 164 163 161 167 166 169 168 168 175 181 191 196 197 202 183 191 198 194 165 169 178 175 190 201 205 199 197 197 192 185 182 186 187 185 185 174 199 200 189 194 168 161 102 131 141 160 187
231 246 204 193 214 230 249 234 196 243 281 305 24 171 265 306 288 257 298 308 291 309 297 294 293 300 297 303 305 295 270 226 190 183 184 179 166 154 98 76 94 124 129 130 136 136 146 153 160 168 167 169 161 161 168 170 178 176 181 192 202 217 209 185 179 189 151 154 175 184 181 189 187 204 209 207 203 200 190 187 186 191 187 180 173 186 201 199 187 189 177 153 173 187 184 174 190
230 259 214 252 233 245 246 221 249 238 316 289 309 331 286 256 262 303 343 325 293 279 280 288 303 311 314 321 317 312 280 233 191 183 177 154 112 106 122 121 118 124 135 138 139 145 149 157 164 165 166 169 161 160 167 174 183 182 189 194 205 214 207 192 160 178 177 179 184 188 188 191 198 195 201 212 216 208 201 187 186 196 198 188 188 194 197 187 190 185 179 165 183 195 190 187 156
268 265 328 251 328 246 304 266 280 306 34 269 272 204 239 279 283 326 338 275 284 268 275 289 292 305 315 326 333 328 312 254 204 151 109 92 110 117 119 117 116 127 135 133 135 146 157 161 167 168 165 162 158 159 164 174 182 193 193 192 203 201 190 191 180 181 182 178 193 176 184 196 199 199 198 204 205 204 201 188 191 204 206 197 202 201 195 193 187 189 193 193 187 188 202 183 194
308 339 302 320 4 341 22 70 156 61 260 259 242 314 182 281 267 222 215 243 216 295 301 289 313 322 322 330 336 344 336 325 79 84 95 115 124 122 115 116 125 132 144 146 152 158 158 161 166 165 161 155 158 166 168 179 181 193 200 197 198 197 183 176 183 194 180 174 191 190 188 198 197 198 138 216 230 205 197 194 199 209 204 207 208 198 203 200 198 192 191 188 182 187 177 194 182
223 54 53 7 317 357 54 336 39 185 275 262 283 219 140 176 288 297 236 251 222 221 258 301 317 318 323 333 340 343 349 6 67 88 109 122 113 109 115 124 136 145 152 156 157 154 156 164 169 168 167 168 169 173 176 186 186 193 198 195 195 193 191 179 186 203 200 196 194 195 187 184 191 153 168 217 214 203 196 209 210 207 215 210 209 206 206 203 195 185 181 192 194 172 175 190 176
58 69 37 34 292 18 306 9 317 218 212 257 326 307 339 239 222 253 295 286 291 222 215 262 294 313 324 328 336 342 355 24 83 112 128 127 120 124 128 136 143 153 164 165 164 165 166 175 183 184 188 179 176 177 185 190 191 196 198 197 196 190 192 190 188 195 195 204 206 208 189 195 175 164 199 212 216 197 201 205 207 207 212 211 213 207 207 202 194 189 195 195 187 186 187 184 187
11 6 115 65 14 25 271 274 212 295 285 278 39 339 259 250 292 230 246 273 258 269 252 251 278 315 322 327 337 349 4 20 108 143 142 131 134 139 143 147 149 154 168 174 176 169 173 182 184 190 193 186 180 179 183 187 194 196 196 198 194 191 191 192 192 194 188 199 199 210 205 202 193 189 200 207 197 191 203 210 204 208 207 207 211 213 212 205 195 191 192 195 198 199 182 188 196
297 153 117 190 132 226 291 234 268 264 247 277 304 16 231 4 239 250 252 261 273 260 264 294 22 360 328 326 1 15 11 3 341 56 102 139 143 147 152 153 155 162 178 183 189 178 177 183 191 194 189 186 181 180 179 185 191 194 196 197 194 187 186 184 192 190 185 192 201 206 209 203 202 198 200 203 187 192 202 202 204 206 203 204 205 204 205 200 192 194 197 206 204 190 192 187 195
286 161 90 63 283 146 232 208 222 262 303 327 232 218 200 222 252 290 303 311 310 349 12 31 7 352 352 14 18 16 12 349 39 80 75 125 144 149 158 166 161 167 178 194 126 85 87 71 57 15 220 192 183 182 183 185 190 189 196 198 195 186 191 181 179 186 189 183 184 209 212 204 209 198 195 187 189 191 193 198 199 204 192 197 205 202 196 193 194 195 199 196 201 189 188 196 201
272 34 334 262 194 136 263 346 288 16 44 260 184 325 302 307 343 359 340 339 299 356 4 18 353 338 353 15 360 7 10 22 47 119 124 140 166 183 181 175 165 170 188 111 92 115 121 121 125 121 126 145 171 182 172 173 176 190 202 201 191 190 185 188 192 193 193 191 178 191 210 210 203 195 200 189 180 185 207 204 200 194 199 201 202 195 187 188 186 196 200 195 198 188 192 201 190
72 38 254 276 96 123 135 264 326 22 258 274 56 262 306 9 290 330 346 335 290 335 350 340 340 5 12 360 355 347 343 358 91 137 156 168 182 183 176 193 192 180 135 76 84 79 91 111 126 111 117 143 162 169 172 165 175 187 193 191 186 181 189 195 190 193 191 189 197 190 193 195 199 196 190 184 190 192 200 202 197 204 197 206 217 207 194 190 185 198 199 199 184 159 155 160 175
107 196 248 10 316 326 321 75 290 318 287 285 303 315 265 197 267 359 332 335 326 342 329 358 10 11 3 354 347 349 349 347 352 143 170 183 197 246 287 213 75 38 59 97 95 103 104 104 107 115 122 126 142 159 175 178 178 175 171 150 114 79 223 222 205 195 187 193 196 194 192 196 191 189 184 179 190 193 185 195 193 195 192 202 210 206 194 195 193 198 197 183 166 161 183 194 208
29 27 9 349 136 212 169 216 197 120 262 343 290 13 269 235 244 307 289 311 316 314 322 11 19 9 1 356 346 353 355 353 342 332 323 220 213 212 331 346 11 25 42 76 100 107 117 118 106 110 109 110 106 130 177 154 149 110 101 147 187 196 195 197 200 192 193 198 200 195 194 186 191 185 189 181 182 185 187 191 192 195 203 205 206 212 202 197 191 196 184 172 170 178 189 196 210
326 343 321 350 290 225 209 267 180 204 210 202 261 304 283 266 221 249 283 297 296 296 281 101 57 9 8 8 356 349 357 353 347 339 322 321 169 132 102 42 45 23 44 70 75 107 122 133 142 141 137 142 149 164 169 177 155 147 170 198 204 192 195 198 201 194 193 199 197 198 204 203 172 185 181 184 183 185 186 190 192 196 201 197 202 204 200 195 196 194 186 173 170 176 182 199 203
249 205 259 229 261 312 311 277 28 40 272 245 219 263 270 269 209 235 275 297 338 354 347 4 34 25 10 17 12 3 360 345 343 347 340 336 12 97 123 83 85 77 27 39 51 64 51 59 70 85 106 142 155 177 191 175 155 171 189 210 194 191 200 201 205 194 195 192 186 186 189 179 192 190 178 187 191 184 184 188 191 198 198 195 196 201 183 185 195 200 193 168 172 178 185 196 201